TimeCST,TemperatureF,Dew PointF,Humidity,Sea Level PressureIn,VisibilityMPH,Wind Direction,Wind SpeedMPH,Gust SpeedMPH,PrecipitationIn,Events,Conditions,WindDirDegrees,DateUTC
12:16 AM,53.6,51.8,94,30.03,10.0,NW,6.9,-,0.01,,Overcast,310,2013-01-02 06:16:00
12:26 AM,53.6,51.8,94,30.02,10.0,NNW,3.5,-,0.01,,Overcast,340,2013-01-02 06:26:00
12:49 AM,53.6,50.0,88,30.02,10.0,NW,8.1,-,0.01,,Overcast,320,2013-01-02 06:49:00
12:53 AM,53.1,50.0,89,30.02,10.0,NW,8.1,-,0.01,,Overcast,310,2013-01-02 06:53:00
1:11 AM,53.6,50.0,88,30.03,10.0,NW,8.1,-,N/A,,Overcast,310,2013-01-02 07:11:00
1:29 AM,53.6,51.8,94,30.04,10.0,NW,6.9,-,N/A,,Overcast,320,2013-01-02 07:29:00
1:35 AM,53.6,50.0,88,30.04,10.0,NW,8.1,-,N/A,,Overcast,310,2013-01-02 07:35:00
1:53 AM,53.1,50.0,89,30.03,10.0,NNW,9.2,-,N/A,,Overcast,330,2013-01-02 07:53:00
2:00 AM,53.6,48.2,82,30.03,10.0,NNW,8.1,-,N/A,,Overcast,340,2013-01-02 08:00:00
2:15 AM,53.6,48.2,82,30.04,10.0,NNW,8.1,-,N/A,,Overcast,340,2013-01-02 08:15:00
2:53 AM,52.0,48.0,86,30.05,10.0,NNW,9.2,-,N/A,,Overcast,330,2013-01-02 08:53:00
3:07 AM,51.8,48.2,88,30.06,10.0,NNW,10.4,-,N/A,,Overcast,330,2013-01-02 09:07:00
3:23 AM,51.8,46.4,82,30.06,10.0,NNW,6.9,-,N/A,,Overcast,330,2013-01-02 09:23:00
3:53 AM,51.1,46.9,86,30.06,10.0,NNW,5.8,-,N/A,,Overcast,330,2013-01-02 09:53:00
4:01 AM,51.8,46.4,82,30.07,10.0,NNW,6.9,-,N/A,,Overcast,330,2013-01-02 10:01:00
4:53 AM,50.0,46.0,86,30.07,10.0,NNW,6.9,-,N/A,,Overcast,330,2013-01-02 10:53:00
5:53 AM,48.0,44.1,86,30.07,10.0,NNW,4.6,-,N/A,,Partly Cloudy,340,2013-01-02 11:53:00
6:35 AM,48.2,44.6,87,30.11,10.0,NW,8.1,-,N/A,,Mostly Cloudy,320,2013-01-02 12:35:00
6:53 AM,48.0,43.0,83,30.11,10.0,NNW,9.2,-,N/A,,Overcast,330,2013-01-02 12:53:00
7:34 AM,48.2,42.8,82,30.12,10.0,NW,8.1,-,N/A,,Scattered Clouds,320,2013-01-02 13:34:00
7:53 AM,48.0,43.0,83,30.12,10.0,NNW,8.1,-,N/A,,Mostly Cloudy,340,2013-01-02 13:53:00
8:53 AM,48.9,44.1,83,30.15,10.0,NW,9.2,-,N/A,,Overcast,320,2013-01-02 14:53:00
9:53 AM,48.9,42.1,77,30.16,10.0,NW,8.1,-,N/A,,Mostly Cloudy,310,2013-01-02 15:53:00
10:53 AM,50.0,42.1,74,30.16,10.0,Variable,6.9,-,N/A,,Overcast,0,2013-01-02 16:53:00
11:50 AM,51.8,42.8,71,30.14,10.0,NW,5.8,-,N/A,,Mostly Cloudy,320,2013-01-02 17:50:00
11:53 AM,52.0,42.1,69,30.14,10.0,Variable,5.8,-,N/A,,Mostly Cloudy,0,2013-01-02 17:53:00
12:53 PM,52.0,42.1,69,30.10,10.0,Calm,Calm,-,N/A,,Partly Cloudy,0,2013-01-02 18:53:00
1:53 PM,51.1,42.1,71,30.10,10.0,West,8.1,-,N/A,,Clear,280,2013-01-02 19:53:00
2:53 PM,51.1,41.0,68,30.12,10.0,NNW,6.9,-,N/A,,Clear,340,2013-01-02 20:53:00
3:53 PM,50.0,41.0,71,30.11,10.0,NW,8.1,-,N/A,,Clear,310,2013-01-02 21:53:00
4:53 PM,48.9,41.0,74,30.14,10.0,WNW,8.1,-,N/A,,Mostly Cloudy,300,2013-01-02 22:53:00
5:53 PM,48.0,41.0,77,30.18,10.0,WNW,10.4,-,N/A,,Clear,290,2013-01-02 23:53:00
6:15 PM,46.4,39.2,76,30.19,10.0,WNW,9.2,-,N/A,,Mostly Cloudy,300,2013-01-03 00:15:00
6:25 PM,46.4,39.2,76,30.19,10.0,NW,9.2,-,N/A,,Scattered Clouds,310,2013-01-03 00:25:00
6:34 PM,46.4,39.2,76,30.19,10.0,NW,11.5,-,N/A,,Mostly Cloudy,320,2013-01-03 00:34:00
6:53 PM,46.0,39.0,76,30.19,10.0,NNW,10.4,-,N/A,,Scattered Clouds,330,2013-01-03 00:53:00
7:53 PM,45.0,39.0,80,30.20,9.0,NW,6.9,-,N/A,,Overcast,320,2013-01-03 01:53:00
8:53 PM,45.0,37.9,76,30.19,10.0,NW,3.5,-,N/A,,Overcast,320,2013-01-03 02:53:00
9:53 PM,45.0,39.0,80,30.20,9.0,NW,3.5,-,N/A,,Overcast,320,2013-01-03 03:53:00
10:53 PM,43.0,39.9,89,30.21,6.0,NW,5.8,-,0.01,Rain,Light Rain,320,2013-01-03 04:53:00
11:48 PM,42.8,39.2,87,30.21,5.0,WNW,6.9,-,0.02,,Overcast,300,2013-01-03 05:48:00
11:53 PM,43.0,39.9,89,30.20,5.0,WNW,6.9,-,0.02,Rain,Light Rain,300,2013-01-03 05:53:00